This is the latest recevied weather packets stored in our database for station/object W4CKA. If no packets are shown the sender has not sent any weather packets the latest 10 day(s).
| Time | Temp. | Humidity | Pressure | Rain* | Wind** | Luminosity | Snow |
|---|---|---|---|---|---|---|---|
| 1777919191 | 21.67° C | 55% | 1057 hPa | 0 mm | - | 680 W/m² | - |
| 1777918591 | 22.22° C | 55% | 1057 hPa | 0 mm | - | 688 W/m² | - |
| 1777917988 | 21.67° C | 55% | 1057.3 hPa | 0 mm | - | 694 W/m² | - |
| 1777917383 | 21.11° C | 53% | 1057.5 hPa | 0 mm | - | 710 W/m² | - |
| 1777916778 | 20.56° C | 56% | 1057.5 hPa | 0 mm | - | 678 W/m² | - |
| 1777916177 | 20.56° C | 57% | 1057.6 hPa | 0 mm | - | 585 W/m² | - |
| 1777915576 | 20° C | 58% | 1057.7 hPa | 0 mm | - | 610 W/m² | - |
| 1777914975 | 19.44° C | 58% | 1057.8 hPa | 0 mm | - | 575 W/m² | - |
| 1777914375 | 20° C | 58% | 1057.9 hPa | 0 mm | - | 563 W/m² | - |
| 1777913774 | 18.89° C | 57% | 1058.2 hPa | 0 mm | - | 569 W/m² | - |
| 1777913173 | 18.89° C | 56% | 1058.5 hPa | 0 mm | - | 601 W/m² | - |
| 1777912572 | 18.89° C | 53% | 1058.7 hPa | 0 mm | - | 590 W/m² | - |
| 1777911970 | 18.33° C | 57% | 1059 hPa | 0 mm | - | 607 W/m² | - |
| 1777911369 | 18.33° C | 54% | 1059.1 hPa | 0 mm | - | 617 W/m² | - |
| 1777910764 | 18.33° C | 60% | 1059.1 hPa | 0 mm | - | 566 W/m² | - |
| 1777910163 | 17.22° C | 63% | 1059.5 hPa | 0 mm | - | 528 W/m² | - |
| 1777909557 | 16.11° C | 60% | 1059.5 hPa | 0 mm | - | 602 W/m² | - |
| 1777908953 | 15.56° C | 65% | 1059.8 hPa | 0 mm | - | 555 W/m² | - |
| 1777908352 | 15° C | 66% | 1059.9 hPa | 0 mm | - | 588 W/m² | - |
| 1777907750 | 14.44° C | 70% | 1059.8 hPa | 0 mm | - | 584 W/m² | - |
| 1777907148 | 13.33° C | 71% | 1060 hPa | 0 mm | - | 448 W/m² | - |
| 1777906543 | 13.33° C | 72% | 1060.3 hPa | 0 mm | - | 312 W/m² | - |
| 1777905940 | 12.78° C | 75% | 1060.5 hPa | 0 mm | - | 160 W/m² | - |
| 1777905340 | 13.33° C | 73% | 1060.6 hPa | 0 mm | - | 201 W/m² | - |
| 1777904735 | 12.78° C | 76% | 1060.6 hPa | 0 mm | - | 416 W/m² | - |
* Rain latest hour (hover to see other rain measurements)
** Current wind speed in m/s (hover to see current wind gust speed)